TimeEST,TemperatureF,Dew PointF,Humidity,Sea Level PressureIn,VisibilityMPH,Wind Direction,Wind SpeedMPH,Gust SpeedMPH,PrecipitationIn,Events,Conditions,WindDirDegrees,DateUTC
12:53 AM,28.9,5.0,36,30.19,10.0,NW,19.6,26.5,N/A,,Clear,310,2014-01-07 05:53:00
1:53 AM,26.1,-2.0,30,30.22,10.0,NW,19.6,27.6,N/A,,Clear,310,2014-01-07 06:53:00
2:53 AM,24.1,-0.9,34,30.26,10.0,NW,18.4,26.5,N/A,,Clear,320,2014-01-07 07:53:00
3:53 AM,21.9,-2.0,35,30.30,10.0,NW,17.3,-,N/A,,Clear,310,2014-01-07 08:53:00
4:53 AM,21.0,-0.0,40,30.34,10.0,NW,15.0,23.0,N/A,,Clear,320,2014-01-07 09:53:00
5:53 AM,19.0,-2.9,38,30.37,10.0,NW,13.8,-,N/A,,Clear,310,2014-01-07 10:53:00
6:53 AM,18.0,-2.9,40,30.41,10.0,NW,13.8,-,N/A,,Clear,320,2014-01-07 11:53:00
7:53 AM,18.0,-5.1,36,30.43,10.0,NW,12.7,-,N/A,,Clear,320,2014-01-07 12:53:00
8:53 AM,19.9,-7.1,30,30.45,10.0,NNW,19.6,25.3,N/A,,Clear,340,2014-01-07 13:53:00
9:53 AM,23.0,-7.1,27,30.49,10.0,NW,19.6,-,N/A,,Clear,320,2014-01-07 14:53:00
10:53 AM,25.0,-6.0,26,30.50,10.0,NW,12.7,20.7,N/A,,Clear,320,2014-01-07 15:53:00
11:53 AM,27.0,-5.1,25,30.46,10.0,NW,10.4,17.3,N/A,,Clear,320,2014-01-07 16:53:00
12:53 PM,28.9,-2.9,25,30.43,10.0,NW,12.7,18.4,N/A,,Clear,320,2014-01-07 17:53:00
1:53 PM,28.9,-2.9,25,30.43,10.0,NNW,10.4,18.4,N/A,,Clear,330,2014-01-07 18:53:00
2:53 PM,30.0,-2.0,25,30.43,10.0,NNW,8.1,-,N/A,,Clear,340,2014-01-07 19:53:00
3:53 PM,30.0,-2.9,24,30.43,10.0,NNW,8.1,-,N/A,,Clear,330,2014-01-07 20:53:00
4:53 PM,28.0,-0.9,29,30.45,10.0,NW,6.9,-,N/A,,Clear,320,2014-01-07 21:53:00
5:53 PM,27.0,-0.0,31,30.47,10.0,Calm,Calm,-,N/A,,Clear,0,2014-01-07 22:53:00
6:53 PM,27.0,3.0,36,30.51,10.0,NW,4.6,-,N/A,,Clear,310,2014-01-07 23:53:00
7:53 PM,26.1,3.9,39,30.53,10.0,WNW,4.6,-,N/A,,Clear,290,2014-01-08 00:53:00
8:53 PM,26.1,5.0,41,30.55,10.0,Calm,Calm,-,N/A,,Clear,0,2014-01-08 01:53:00
9:53 PM,25.0,6.1,45,30.54,10.0,WNW,3.5,-,N/A,,Clear,290,2014-01-08 02:53:00
10:53 PM,23.0,12.9,65,30.54,10.0,Calm,Calm,-,N/A,,Clear,0,2014-01-08 03:53:00
11:53 PM,24.1,12.9,62,30.52,10.0,Calm,Calm,-,N/A,,Clear,0,2014-01-08 04:53:00